Location: Bennemühlen
(52.5740°N, 9.7135°E)
Time: 06:57:33
(UTC+00:00)

Vanguard 2 Rocket - Pass Details

Date: 25 February 2026
Orbit: 553 x 3286 km, 32.9° (Epoch: 7 March)

Event Time Altitude Azimuth Distance (km) Brightness Sun altitude
Rises 14:50:04 0° 269° (W) 7,148 12.3 15.7°
Reaches altitude 10° 14:56:38 10° 257° (WSW) 5,867 12.4 14.9°
Maximum altitude 15:08:07 22° 216° (SW) 4,135 11.9 13.5°
Drops below altitude 10° 15:16:45 10° 171° (S) 4,262 10.7 12.4°
Sets 15:20:32 0° 156° (SSE) 4,833 10.7 12.0°
